| time (UTC) | temp C | wind direction | speed KPH | gust KPH | rain 1hr cm | rain 24hr cm | rain mn cm | humidity % | barometer mb |
| 20260507091046 | 2 | 0.0 | 0.0 | 0.00 | 1.32 | 0.00 | 99 | 1013.1 | |
| 20260507090034 | 2 | 0.0 | 0.0 | 0.00 | 1.32 | 0.00 | 99 | 1013.4 | |
| 20260507085023 | 2 | 0.0 | 0.0 | 0.00 | 1.32 | 0.00 | 98 | 1013.4 | |
| 20260507084032 | 2 | 0.0 | 0.0 | 0.00 | 1.35 | 0.00 | 96 | 1013.4 | |
| 20260507083021 | 3 | 0.0 | 0.0 | 0.00 | 1.35 | 0.00 | 97 | 1013.4 | |
| 20260507082028 | 3 | 0.0 | 0.0 | 0.00 | 1.35 | 0.00 | 97 | 1013.4 | |
| 20260507081057 | 4 | 0.0 | 0.0 | 0.00 | 1.35 | 0.00 | 96 | 1013.3 | |
| 20260507080027 | 5 | 136 | 1.6 | 3.2 | 0.00 | 1.35 | 0.00 | 94 | 1013.3 |
| 20260507075035 | 5 | 0.0 | 0.0 | 0.00 | 1.35 | 0.00 | 92 | 1013.3 | |
| 20260507074024 | 5 | 0.0 | 0.0 | 0.00 | 1.37 | 0.00 | 91 | 1013.3 | |
| 20260507073032 | 5 | 0.0 | 0.0 | 0.00 | 1.37 | 0.00 | 89 | 1013.3 | |
| 20260507072022 | 5 | 270 | 0.0 | 3.2 | 0.00 | 1.37 | 0.00 | 86 | 1013.1 |
| 20260507071029 | 5 | 270 | 0.0 | 1.6 | 0.00 | 1.37 | 0.00 | 85 | 1013.1 |
| 20260507070019 | 6 | 270 | 1.6 | 4.8 | 0.00 | 1.37 | 0.00 | 85 | 1013.1 |
| 20260507065027 | 6 | 289 | 1.6 | 3.2 | 0.00 | 1.37 | 0.00 | 85 | 1013.4 |
| 20260507064035 | 6 | 300 | 1.6 | 3.2 | 0.00 | 1.37 | 0.00 | 86 | 1013.4 |
| 20260507063025 | 6 | 223 | 0.0 | 3.2 | 0.00 | 1.37 | 0.00 | 88 | 1013.4 |
| 20260507062033 | 6 | 322 | 3.2 | 6.4 | 0.00 | 1.37 | 0.00 | 89 | 1013.3 |
| 20260507061042 | 6 | 305 | 1.6 | 3.2 | 0.00 | 1.37 | 0.00 | 91 | 1013.3 |
| 20260507060030 | 6 | 311 | 3.2 | 6.4 | 0.00 | 1.37 | 0.00 | 91 | 1013.4 |
| 20260507055019 | 6 | 267 | 1.6 | 6.4 | 0.00 | 1.37 | 0.00 | 90 | 1013.4 |
| 20260507054028 | 6 | 307 | 3.2 | 6.4 | 0.00 | 1.37 | 0.00 | 90 | 1013.4 |
| 20260507053035 | 7 | 299 | 3.2 | 8.0 | 0.00 | 1.37 | 0.00 | 89 | 1013.2 |
| 20260507052025 | 7 | 279 | 3.2 | 6.4 | 0.00 | 1.37 | 0.00 | 88 | 1013.3 |
| 20260507051033 | 7 | 290 | 4.8 | 6.4 | 0.00 | 1.37 | 0.00 | 88 | 1013.3 |
| 20260507050022 | 7 | 309 | 4.8 | 8.0 | 0.00 | 1.37 | 0.00 | 87 | 1013.3 |
| 20260507045050 | 7 | 273 | 4.8 | 9.7 | 0.00 | 1.37 | 0.00 | 87 | 1013.3 |
| 20260507044019 | 7 | 253 | 4.8 | 8.0 | 0.00 | 1.37 | 0.00 | 87 | 1013.3 |
| 20260507043108 | 7 | 321 | 6.4 | 9.7 | 0.00 | 1.37 | 0.00 | 86 | 1013.2 |
| 20260507042035 | 7 | 349 | 6.4 | 11.3 | 0.00 | 1.37 | 0.00 | 86 | 1013.0 |
| 20260507041025 | 7 | 316 | 6.4 | 9.7 | 0.00 | 1.37 | 0.00 | 87 | 1013.2 |
| 20260507040033 | 7 | 270 | 4.8 | 8.0 | 0.00 | 1.37 | 0.00 | 87 | 1013.1 |
| 20260507035025 | 7 | 255 | 3.2 | 8.0 | 0.00 | 1.37 | 1.37 | 88 | 1012.8 |
| 20260507034030 | 7 | 276 | 1.6 | 3.2 | 0.00 | 1.37 | 1.37 | 87 | 1012.4 |
| 20260507033039 | 7 | 276 | 3.2 | 6.4 | 0.00 | 1.37 | 1.37 | 86 | 1012.3 |
| 20260507032027 | 7 | 301 | 1.6 | 4.8 | 0.00 | 1.37 | 1.37 | 89 | 1012.2 |
| 20260507031035 | 8 | 296 | 1.6 | 6.4 | 0.00 | 1.37 | 1.37 | 92 | 1012.5 |
| 20260507030025 | 8 | 293 | 0.0 | 3.2 | 0.00 | 1.37 | 1.37 | 92 | 1012.5 |
| 20260507025033 | 8 | 184 | 1.6 | 4.8 | 0.00 | 1.37 | 1.37 | 91 | 1012.5 |
| 20260507024022 | 8 | 281 | 3.2 | 6.4 | 0.00 | 1.37 | 1.37 | 95 | 1012.5 |
| 20260507023030 | 8 | 277 | 4.8 | 9.7 | 0.00 | 1.37 | 1.37 | 98 | 1012.5 |
| 20260507022040 | 8 | 302 | 3.2 | 6.4 | 0.00 | 1.37 | 1.37 | 99 | 1012.4 |
| 20260507021028 | 8 | 319 | 0.0 | 3.2 | 0.00 | 1.37 | 1.37 | 99 | 1012.6 |
| 20260507020035 | 8 | 0.0 | 0.0 | 0.00 | 1.37 | 1.37 | 99 | 1012.7 | |
| 20260507015025 | 8 | 270 | 0.0 | 4.8 | 0.00 | 1.37 | 1.37 | 99 | 1012.7 |
| 20260507014033 | 8 | 0.0 | 0.0 | 0.00 | 1.37 | 1.37 | 99 | 1012.5 | |
| 20260507013024 | 8 | 0.0 | 0.0 | 0.00 | 1.37 | 1.37 | 99 | 1012.6 | |
| 20260507012030 | 8 | 0.0 | 0.0 | 0.00 | 1.37 | 1.37 | 99 | 1012.6 | |
| 20260507011020 | 8 | 0.0 | 0.0 | 0.00 | 1.37 | 1.37 | 99 | 1012.5 | |
| 20260507010028 | 8 | 0.0 | 0.0 | 0.00 | 1.37 | 1.37 | 99 | 1012.3 | |
| 20260507005037 | 8 | 158 | 0.0 | 3.2 | 0.00 | 1.37 | 1.37 | 98 | 1012.2 |
| 20260507004025 | 8 | 0.0 | 0.0 | 0.00 | 1.37 | 1.37 | 97 | 1012.2 | |
| 20260507003033 | 8 | 0.0 | 0.0 | 0.00 | 1.37 | 1.37 | 98 | 1011.9 | |
| 20260507002023 | 8 | 0.0 | 0.0 | 0.00 | 1.37 | 1.37 | 96 | 1011.9 | |
| 20260507001031 | 9 | 0.0 | 0.0 | 0.00 | 1.37 | 1.37 | 95 | 1011.8 | |
| 20260507000022 | 9 | 0.0 | 0.0 | 0.00 | 1.37 | 1.37 | 93 | 1011.6 | |
| 20260506235049 | 9 | 270 | 1.6 | 3.2 | 0.00 | 1.37 | 1.37 | 92 | 1011.6 |
| 20260506234036 | 10 | 0.0 | 0.0 | 0.00 | 1.37 | 1.37 | 92 | 1011.5 | |
| 20260506233026 | 10 | 0.0 | 0.0 | 0.00 | 1.37 | 1.37 | 92 | 1011.5 | |
| 20260506232034 | 10 | 0.0 | 0.0 | 0.00 | 1.37 | 1.37 | 90 | 1011.5 | |
| 20260506231023 | 10 | 0.0 | 0.0 | 0.00 | 1.37 | 1.37 | 91 | 1011.4 | |
| 20260506230051 | 10 | 0.0 | 0.0 | 0.00 | 1.37 | 1.37 | 90 | 1011.4 | |
| 20260506225021 | 10 | 286 | 1.6 | 3.2 | 0.00 | 1.37 | 1.37 | 89 | 1011.3 |
| 20260506224029 | 10 | 0.0 | 0.0 | 0.00 | 1.37 | 1.37 | 91 | 1011.3 | |
| 20260506223057 | 10 | 270 | 0.0 | 1.6 | 0.00 | 1.37 | 1.37 | 91 | 1011.2 |
| 20260506222026 | 10 | 274 | 1.6 | 4.8 | 0.00 | 1.37 | 1.37 | 91 | 1011.2 |
| 20260506221034 | 10 | 0.0 | 0.0 | 0.00 | 1.37 | 1.37 | 91 | 1011.2 | |
| 20260506220023 | 10 | 270 | 0.0 | 1.6 | 0.00 | 1.37 | 1.37 | 93 | 1010.8 |
| 20260506215032 | 10 | 314 | 1.6 | 4.8 | 0.00 | 1.37 | 1.37 | 95 | 1010.8 |
| 20260506214021 | 10 | 288 | 1.6 | 4.8 | 0.00 | 1.37 | 1.37 | 96 | 1011.0 |
| 20260506213029 | 9 | 261 | 1.6 | 4.8 | 0.00 | 1.37 | 1.37 | 97 | 1010.9 |
| 20260506212019 | 9 | 294 | 3.2 | 4.8 | 0.00 | 1.37 | 1.37 | 97 | 1010.8 |
| 20260506211027 | 9 | 305 | 3.2 | 6.4 | 0.00 | 1.37 | 1.37 | 96 | 1010.8 |
| 20260506210037 | 10 | 270 | 0.0 | 6.4 | 0.00 | 1.37 | 1.37 | 96 | 1010.8 |
| 20260506205024 | 10 | 306 | 3.2 | 6.4 | 0.00 | 1.37 | 1.37 | 96 | 1010.6 |
| 20260506204031 | 10 | 296 | 3.2 | 6.4 | 0.00 | 1.37 | 1.37 | 94 | 1010.5 |
| 20260506203021 | 10 | 277 | 1.6 | 3.2 | 0.00 | 1.37 | 1.37 | 93 | 1010.5 |
| 20260506202029 | 10 | 283 | 1.6 | 6.4 | 0.00 | 1.37 | 1.37 | 94 | 1010.3 |
| 20260506201037 | 10 | 296 | 4.8 | 6.4 | 0.00 | 1.37 | 1.37 | 95 | 1010.3 |
| 20260506200027 | 9 | 334 | 4.8 | 8.0 | 0.00 | 1.40 | 1.37 | 94 | 1010.2 |
| 20260506195034 | 10 | 316 | 6.4 | 9.7 | 0.00 | 1.40 | 1.37 | 93 | 1010.0 |
| 20260506194024 | 10 | 306 | 6.4 | 9.7 | 0.00 | 1.40 | 1.37 | 92 | 1009.9 |
| 20260506193032 | 10 | 298 | 3.2 | 6.4 | 0.00 | 1.40 | 1.37 | 92 | 1009.8 |
| 20260506192021 | 10 | 301 | 4.8 | 8.0 | 0.00 | 1.40 | 1.37 | 92 | 1009.8 |
| 20260506191029 | 10 | 283 | 4.8 | 8.0 | 0.00 | 1.40 | 1.37 | 93 | 1009.8 |
| 20260506190019 | 10 | 314 | 6.4 | 9.7 | 0.00 | 1.40 | 1.37 | 91 | 1009.7 |
| 20260506185027 | 10 | 281 | 3.2 | 6.4 | 0.00 | 1.40 | 1.37 | 94 | 1009.7 |
| 20260506184054 | 10 | 304 | 4.8 | 8.0 | 0.00 | 1.40 | 1.37 | 94 | 1009.7 |
| 20260506183044 | 10 | 353 | 3.2 | 6.4 | 0.00 | 1.42 | 1.37 | 97 | 1009.7 |
| 20260506182032 | 9 | 294 | 4.8 | 8.0 | 0.00 | 1.42 | 1.37 | 98 | 1009.6 |
| 20260506181022 | 9 | 302 | 3.2 | 6.4 | 0.00 | 1.45 | 1.37 | 98 | 1009.5 |
| 20260506180029 | 10 | 282 | 4.8 | 9.7 | 0.00 | 1.57 | 1.37 | 98 | 1009.3 |
| 20260506175019 | 10 | 278 | 3.2 | 8.0 | 0.03 | 1.65 | 1.37 | 97 | 1009.1 |
| 20260506174027 | 10 | 298 | 4.8 | 6.4 | 0.03 | 1.65 | 1.37 | 97 | 1009.0 |
| 20260506173035 | 10 | 335 | 4.8 | 9.7 | 0.03 | 1.65 | 1.37 | 98 | 1009.0 |
| 20260506172024 | 9 | 298 | 6.4 | 9.7 | 0.03 | 1.65 | 1.37 | 98 | 1009.0 |
| 20260506171032 | 9 | 318 | 4.8 | 8.0 | 0.05 | 1.65 | 1.37 | 99 | 1009.0 |
| 20260506170022 | 9 | 282 | 4.8 | 9.7 | 0.05 | 1.65 | 1.37 | 98 | 1008.6 |
| 20260506165030 | 9 | 293 | 4.8 | 6.4 | 0.03 | 1.63 | 1.35 | 99 | 1008.7 |
| 20260506164019 | 9 | 284 | 3.2 | 6.4 | 0.03 | 1.63 | 1.35 | 99 | 1008.8 |
| 20260506163027 | 9 | 269 | 3.2 | 8.0 | 0.03 | 1.63 | 1.35 | 99 | 1008.8 |
| 20260506162035 | 9 | 313 | 4.8 | 6.4 | 0.03 | 1.63 | 1.35 | 99 | 1008.7 |
| 20260506161025 | 8 | 270 | 3.2 | 6.4 | 0.00 | 1.60 | 1.32 | 99 | 1008.7 |
| 20260506160033 | 8 | 275 | 6.4 | 8.0 | 0.03 | 1.60 | 1.32 | 99 | 1008.7 |
| 20260506155022 | 8 | 285 | 3.2 | 4.8 | 0.03 | 1.60 | 1.32 | 99 | 1008.5 |
| 20260506154030 | 8 | 263 | 1.6 | 4.8 | 0.05 | 1.60 | 1.32 | 99 | 1008.5 |
| 20260506153039 | 8 | 291 | 3.2 | 4.8 | 0.05 | 1.60 | 1.32 | 99 | 1008.5 |
| 20260506152027 | 8 | 292 | 1.6 | 6.4 | 0.08 | 1.60 | 1.32 | 99 | 1008.4 |
| 20260506151036 | 8 | 0.0 | 0.0 | 0.08 | 1.60 | 1.32 | 99 | 1008.3 | |
| 20260506150025 | 7 | 270 | 1.6 | 3.2 | 0.08 | 1.57 | 1.30 | 99 | 1008.5 |
| 20260506145033 | 7 | 0.0 | 0.0 | 0.08 | 1.57 | 1.30 | 99 | 1008.2 | |
| 20260506144042 | 7 | 326 | 3.2 | 6.4 | 0.08 | 1.55 | 1.27 | 99 | 1008.2 |
| 20260506143030 | 8 | 270 | 1.6 | 9.7 | 0.10 | 1.55 | 1.27 | 99 | 1008.0 |
| 20260506142020 | 8 | 64 | 1.6 | 4.8 | 0.10 | 1.52 | 1.24 | 99 | 1007.7 |
| 20260506141028 | 8 | 7 | 1.6 | 4.8 | 0.15 | 1.52 | 1.24 | 99 | 1007.7 |
| 20260506140056 | 7 | 307 | 1.6 | 4.8 | 0.18 | 1.50 | 1.22 | 99 | 1007.7 |
| 20260506135046 | 7 | 301 | 3.2 | 8.0 | 0.25 | 1.50 | 1.22 | 99 | 1007.7 |
| 20260506134033 | 7 | 336 | 4.8 | 6.4 | 0.33 | 1.47 | 1.19 | 99 | 1007.7 |
| 20260506133023 | 7 | 53 | 1.6 | 6.4 | 0.41 | 1.45 | 1.17 | 99 | 1007.7 |
| 20260506132031 | 8 | 333 | 4.8 | 8.0 | 0.46 | 1.42 | 1.14 | 99 | 1007.7 |
| 20260506131020 | 8 | 337 | 6.4 | 9.7 | 0.48 | 1.37 | 1.09 | 99 | 1007.7 |
| 20260506130028 | 8 | 346 | 6.4 | 14.5 | 0.51 | 1.32 | 1.04 | 99 | 1007.5 |
| 20260506125036 | 8 | 84 | 6.4 | 11.3 | 0.48 | 1.24 | 0.97 | 99 | 1007.7 |
| 20260506124026 | 9 | 305 | 3.2 | 6.4 | 0.43 | 1.14 | 0.86 | 99 | 1007.4 |
| 20260506123034 | 9 | 233 | 3.2 | 4.8 | 0.36 | 1.04 | 0.76 | 99 | 1007.7 |
| 20260506122023 | 9 | 98 | 4.8 | 9.7 | 0.28 | 0.97 | 0.69 | 99 | 1007.7 |
| 20260506121031 | 9 | 324 | 3.2 | 8.0 | 0.23 | 0.89 | 0.61 | 99 | 1007.5 |
| 20260506120021 | 9 | 337 | 4.8 | 8.0 | 0.18 | 0.81 | 0.53 | 99 | 1007.1 |
| 20260506115028 | 9 | 346 | 3.2 | 6.4 | 0.15 | 0.76 | 0.48 | 99 | 1007.0 |
| 20260506114036 | 9 | 84 | 4.8 | 6.4 | 0.15 | 0.71 | 0.43 | 99 | 1007.0 |
| 20260506113026 | 9 | 289 | 3.2 | 4.8 | 0.15 | 0.69 | 0.41 | 99 | 1007.0 |
| 20260506112034 | 9 | 32 | 4.8 | 8.0 | 0.20 | 0.69 | 0.41 | 99 | 1007.0 |
| 20260506111024 | 9 | 197 | 1.6 | 3.2 | 0.20 | 0.66 | 0.38 | 99 | 1007.1 |
| 20260506110031 | 9 | 293 | 0.0 | 3.2 | 0.20 | 0.64 | 0.36 | 99 | 1007.1 |
| 20260506105021 | 9 | 64 | 1.6 | 4.8 | 0.18 | 0.61 | 0.33 | 99 | 1007.1 |
| 20260506104030 | 9 | 123 | 1.6 | 4.8 | 0.15 | 0.56 | 0.28 | 99 | 1007.2 |
| 20260506103037 | 9 | 45 | 0.0 | 1.6 | 0.15 | 0.53 | 0.25 | 99 | 1007.2 |
| 20260506102027 | 9 | 113 | 0.0 | 1.6 | 0.13 | 0.48 | 0.20 | 99 | 1007.2 |
| 20260506101034 | 9 | 106 | 1.6 | 4.8 | 0.13 | 0.46 | 0.18 | 99 | 1007.2 |
| 20260506100024 | 9 | 169 | 1.6 | 4.8 | 0.10 | 0.43 | 0.15 | 99 | 1007.2 |
| 20260506095032 | 9 | 23 | 1.6 | 4.8 | 0.10 | 0.43 | 0.15 | 99 | 1007.2 |
| 20260506094041 | 9 | 68 | 3.2 | 6.4 | 0.10 | 0.41 | 0.13 | 99 | 1007.2 |
| 20260506093110 | 9 | 266 | 3.2 | 8.0 | 0.08 | 0.38 | 0.10 | 99 | 1007.2 |
| 20260506092019 | 9 | 318 | 3.2 | 6.4 | 0.05 | 0.38 | 0.08 | 99 | 1007.3 |